DW1234 Weather Reports


Display with metric or nautical units.
time (UTC)temp
F
wind
direction
speed
MPH
gust
MPH
rain 1hr
in
rain 24hr
in
rain mn
in
humidity
%
barometer
mb
20180424065717 54 40 5.0 9.0 0.00 0.00 0.00 55 1019.1
20180424065225 54 56 5.0 9.0 0.00 0.00 0.00 55 1019.0
20180424064730 54 61 6.0 9.0 0.00 0.00 0.00 54 1019.0
20180424064213 55 44 5.0 9.0 0.00 0.00 0.00 53 1019.0
20180424063721 55 51 6.0 9.0 0.00 0.00 0.00 53 1019.0
20180424063224 55 49 6.0 9.0 0.00 0.00 0.00 52 1019.0
20180424062727 55 50 7.0 9.0 0.00 0.00 0.00 52 1018.9
20180424062230 55 26 6.0 9.0 0.00 0.00 0.00 51 1018.9
20180424061716 55 69 5.0 9.0 0.00 0.00 0.00 50 1018.8
20180424061224 56 67 5.0 9.0 0.00 0.00 0.00 50 1018.7
20180424060727 56 51 5.0 11.0 0.00 0.00 0.00 49 1018.7
20180424060226 56 45 5.0 11.0 0.00 0.00 0.00 48 1018.8
20180424055717 57 67 6.0 10.0 0.00 0.00 0.00 47 1018.7
20180424055219 57 53 7.0 10.0 0.00 0.00 0.00 46 1018.6
20180424054727 57 53 7.0 10.0 0.00 0.00 0.00 45 1018.6
20180424054231 57 50 5.0 8.0 0.00 0.00 0.00 44 1018.6
20180424053735 57 61 4.0 7.0 0.00 0.00 0.00 44 1018.5
20180424053220 57 61 6.0 8.0 0.00 0.00 0.00 44 1018.5
20180424052725 57 52 5.0 9.0 0.00 0.00 0.00 44 1018.4
20180424052233 57 57 5.0 9.0 0.00 0.00 0.00 44 1018.4
20180424051736 57 59 5.0 8.0 0.00 0.00 0.00 44 1018.2
20180424051219 57 44 5.0 9.0 0.00 0.00 0.00 44 1018.2
20180424050729 56 54 5.0 9.0 0.00 0.00 0.00 44 1018.2
20180424050230 56 50 4.0 8.0 0.00 0.00 0.00 45 1018.2
20180424045717 56 48 3.0 7.0 0.00 0.00 0.00 45 1018.1
20180424045221 56 41 4.0 7.0 0.00 0.00 0.00 45 1018.1
20180424044726 56 34 4.0 7.0 0.00 0.00 0.00 45 1018.1
20180424044229 56 43 4.0 6.0 0.00 0.00 0.00 44 1018.1
20180424043734 57 38 3.0 5.0 0.00 0.00 0.00 43 1018.0
20180424043219 57 30 3.0 6.0 0.00 0.00 0.00 43 1018.0
20180424042725 57 59 2.0 6.0 0.00 0.00 0.00 44 1017.9
20180424042229 57 49 3.0 6.0 0.00 0.00 0.00 43 1017.9
20180424041720 57 47 3.0 4.0 0.00 0.00 0.00 43 1017.9
20180424041225 57 47 2.0 3.0 0.00 0.00 0.00 43 1017.7
20180424040728 58 47 2.0 4.0 0.00 0.00 0.00 42 1017.6
20180424040232 58 47 2.0 4.0 0.00 0.00 0.00 42 1017.6
20180424035719 58 47 2.0 4.0 0.00 0.00 0.00 42 1017.7
20180424035224 58 47 2.0 5.0 0.00 0.00 0.00 42 1017.7
20180424034729 59 47 2.0 5.0 0.00 0.00 0.00 41 1017.7
20180424034233 59 46 3.0 4.0 0.00 0.00 0.00 41 1017.7
20180424033720 59 46 2.0 3.0 0.00 0.00 0.00 41 1017.7
20180424033224 59 46 2.0 3.0 0.00 0.00 0.00 40 1017.6
20180424032729 60 46 3.0 3.0 0.00 0.00 0.00 39 1017.6
20180424032220 60 46 2.0 4.0 0.00 0.00 0.00 39 1017.6
20180424031726 60 48 3.0 4.0 0.00 0.00 0.00 39 1017.6
20180424031230 60 83 2.0 3.0 0.00 0.00 0.00 38 1017.5
20180424030716 61 83 2.0 3.0 0.00 0.00 0.00 38 1017.5
20180424030220 61 85 2.0 3.0 0.00 0.00 0.00 38 1017.4
20180424025729 61 85 2.0 3.0 0.00 0.00 0.00 39 1017.3
20180424025234 61 85 2.0 6.0 0.00 0.00 0.00 39 1017.3
20180424024720 61 89 3.0 6.0 0.00 0.00 0.00 38 1017.3
20180424024225 62 88 4.0 6.0 0.00 0.00 0.00 38 1017.3
20180424023726 62 96 4.0 6.0 0.00 0.00 0.00 37 1017.2
20180424023237 62 92 4.0 6.0 0.00 0.00 0.00 37 1017.2
20180424022722 62 90 3.0 7.0 0.00 0.00 0.00 37 1017.2
20180424022225 62 95 4.0 8.0 0.00 0.00 0.00 37 1017.2
20180424021730 62 91 3.0 8.0 0.00 0.00 0.00 36 1017.1
20180424021234 62 80 2.0 3.0 0.00 0.00 0.00 36 1016.9
20180424020719 63 76 2.0 3.0 0.00 0.00 0.00 36 1017.0
20180424020223 63 76 3.0 3.0 0.00 0.00 0.00 35 1016.9
20180424015726 63 76 2.0 3.0 0.00 0.00 0.00 34 1016.9
20180424015231 64 76 2.0 5.0 0.00 0.00 0.00 34 1016.9
20180424014735 64 76 2.0 5.0 0.00 0.00 0.00 34 1016.9
20180424014222 64 82 2.0 5.0 0.00 0.00 0.00 33 1016.9
20180424013729 65 84 2.0 8.0 0.00 0.00 0.00 33 1016.9
20180424013234 65 88 4.0 8.0 0.00 0.00 0.00 33 1016.8
20180424012718 65 92 4.0 6.0 0.00 0.00 0.00 32 1016.7
20180424012225 66 84 2.0 5.0 0.00 0.00 0.00 32 1016.8
20180424011731 66 84 2.0 5.0 0.00 0.00 0.00 31 1016.8
20180424011233 66 84 2.0 7.0 0.00 0.00 0.00 31 1016.9
20180424010719 67 84 2.0 7.0 0.00 0.00 0.00 31 1016.9
20180424010221 67 92 2.0 7.0 0.00 0.00 0.00 31 1016.8
20180424005725 67 91 4.0 7.0 0.00 0.00 0.00 30 1016.8
20180424005231 68 84 2.0 5.0 0.00 0.00 0.00 30 1016.8
20180424004718 68 77 2.0 4.0 0.00 0.00 0.00 30 1016.7
20180424004223 68 76 2.0 6.0 0.00 0.00 0.00 30 1016.6
20180424003727 69 88 3.0 8.0 0.00 0.00 0.00 30 1016.6
20180424003215 69 95 4.0 9.0 0.00 0.00 0.00 29 1016.7
20180424002722 69 69 4.0 8.0 0.00 0.00 0.00 29 1016.6
20180424002231 70 52 3.0 5.0 0.00 0.00 0.00 29 1016.6
20180424001734 70 71 2.0 10.0 0.00 0.00 0.00 29 1016.7
20180424001218 70 67 5.0 10.0 0.00 0.00 0.00 28 1016.6
20180424000722 70 51 4.0 6.0 0.00 0.00 0.00 28 1016.7
20180424000224 71 65 4.0 8.0 0.00 0.00 0.00 28 1016.7
20180423235733 71 51 5.0 8.0 0.00 0.00 0.00 27 1016.7
20180423235219 71 41 3.0 6.0 0.00 0.00 0.00 27 1016.7
20180423234727 71 44 3.0 9.0 0.00 0.00 0.00 27 1016.8
20180423234231 71 39 5.0 9.0 0.00 0.00 0.00 27 1016.7
20180423233714 72 32 4.0 10.0 0.00 0.00 0.00 27 1016.8
20180423233221 72 38 6.0 10.0 0.00 0.00 0.00 27 1016.8
20180423232722 72 74 3.0 8.0 0.00 0.00 0.00 28 1016.8
20180423232228 72 76 5.0 8.0 0.00 0.00 0.00 27 1016.8
20180423231732 72 33 3.0 8.0 0.00 0.00 0.00 27 1016.8
20180423231235 72 360 2.0 9.0 0.00 0.00 0.00 27 1016.8
20180423230721 72 42 4.0 9.0 0.00 0.00 0.00 27 1016.9
20180423230225 72 61 4.0 8.0 0.00 0.00 0.00 27 1016.9
20180423225731 72 90 2.0 9.0 0.00 0.00 0.00 26 1016.9
20180423225219 72 90 3.0 10.0 0.00 0.00 0.00 28 1016.9
20180423224726 72 99 5.0 10.0 0.00 0.00 0.00 28 1016.9
20180423224231 72 134 1.0 6.0 0.00 0.00 0.00 26 1016.9
20180423223734 73 134 2.0 8.0 0.00 0.00 0.00 27 1017.0
20180423223237 73 126 5.0 10.0 0.00 0.00 0.00 27 1017.0
20180423222719 73 91 5.0 10.0 0.00 0.00 0.00 28 1016.9
20180423222224 73 343 6.0 10.0 0.00 0.00 0.00 27 1016.9
20180423221725 74 59 3.0 12.0 0.00 0.00 0.00 28 1016.9
20180423221233 74 50 3.0 12.0 0.00 0.00 0.00 27 1017.0
20180423220717 74 30 3.0 7.0 0.00 0.00 0.00 27 1017.1
20180423220222 74 9 4.0 8.0 0.00 0.00 0.00 27 1017.0
20180423215725 73 323 3.0 12.0 0.00 0.00 0.00 29 1017.1
20180423215228 73 32 5.0 12.0 0.00 0.00 0.00 28 1017.2
20180423214733 73 51 5.0 10.0 0.00 0.00 0.00 29 1017.1
20180423214234 73 89 5.0 10.0 0.00 0.00 0.00 27 1017.2
20180423213719 73 97 2.0 8.0 0.00 0.00 0.00 27 1017.1
20180423213226 73 97 4.0 9.0 0.00 0.00 0.00 27 1017.2
20180423212732 73 69 6.0 9.0 0.00 0.00 0.00 27 1017.2
20180423212224 73 49 4.0 11.0 0.00 0.00 0.00 29 1017.2
20180423211728 73 49 5.0 11.0 0.00 0.00 0.00 30 1017.3
20180423211232 72 88 3.0 9.0 0.00 0.00 0.00 29 1017.4
20180423210736 73 101 5.0 10.0 0.00 0.00 0.00 28 1017.5
20180423210217 73 59 4.0 11.0 0.00 0.00 0.00 29 1017.7
20180423205723 73 94 6.0 11.0 0.00 0.00 0.00 29 1017.7
20180423205228 73 82 4.0 9.0 0.00 0.00 0.00 27 1017.7
20180423204735 73 53 1.0 17.0 0.00 0.00 0.00 29 1017.7
20180423204218 73 54 5.0 17.0 0.00 0.00 0.00 31 1017.8
20180423203725 72 64 4.0 8.0 0.00 0.00 0.00 28 1017.9
20180423203231 73 87 5.0 10.0 0.00 0.00 0.00 28 1017.9
20180423202719 73 111 6.0 10.0 0.00 0.00 0.00 28 1017.9
20180423202229 73 96 3.0 11.0 0.00 0.00 0.00 32 1017.9
20180423201733 73 45 5.0 14.0 0.00 0.00 0.00 31 1018.0
20180423201220 72 93 4.0 14.0 0.00 0.00 0.00 30 1018.2
20180423200724 72 61 4.0 12.0 0.00 0.00 0.00 30 1018.2
20180423200222 72 28 5.0 12.0 0.00 0.00 0.00 33 1018.4
20180423195730 72 72 6.0 11.0 0.00 0.00 0.00 30 1018.4
20180423195234 72 48 4.0 10.0 0.00 0.00 0.00 30 1018.4
20180423194717 72 24 2.0 5.0 0.00 0.00 0.00 30 1018.4
20180423194223 72 317 2.0 12.0 0.00 0.00 0.00 30 1018.6
20180423193731 71 90 6.0 12.0 0.00 0.00 0.00 30 1018.7
20180423193218 72 16 8.0 14.0 0.00 0.00 0.00 31 1018.7
20180423192722 72 132 5.0 9.0 0.00 0.00 0.00 31 1018.7
20180423192225 72 52 5.0 13.0 0.00 0.00 0.00 31 1018.8
20180423191731 72 65 6.0 14.0 0.00 0.00 0.00 32 1018.8
20180423191233 72 40 6.0 12.0 0.00 0.00 0.00 32 1018.8
20180423190722 71 42 6.0 11.0 0.00 0.00 0.00 32 1019.0
20180423190227 71 71 5.0 11.0 0.00 0.00 0.00 32 1019.0
20180423185733 71 138 4.0 13.0 0.00 0.00 0.00 33 1019.1
20180423185219 71 96 5.0 13.0 0.00 0.00 0.00 31 1019.2
20180423184728 71 46 6.0 18.0 0.00 0.00 0.00 34 1019.2
20180423184232 71 127 5.0 18.0 0.00 0.00 0.00 33 1019.3
20180423183719 71 121 6.0 14.0 0.00 0.00 0.00 32 1019.4
20180423183222 71 84 4.0 11.0 0.00 0.00 0.00 32 1019.4
20180423182726 71 93 6.0 11.0 0.00 0.00 0.00 32 1019.5
20180423182231 70 338 4.0 12.0 0.00 0.00 0.00 33 1019.5
20180423181734 70 79 6.0 16.0 0.00 0.00 0.00 31 1019.6
20180423181236 70 80 10.0 16.0 0.00 0.00 0.00 31 1019.6
20180423180722 69 68 3.0 16.0 0.00 0.00 0.00 34 1019.7
20180423180224 69 80 8.0 16.0 0.00 0.00 0.00 32 1019.8
20180423175727 69 61 7.0 15.0 0.00 0.00 0.00 33 1019.8
20180423175233 69 71 6.0 13.0 0.00 0.00 0.00 33 1020.0
20180423174719 69 51 4.0 11.0 0.00 0.00 0.00 35 1020.1
20180423174225 69 27 4.0 13.0 0.00 0.00 0.00 32 1020.1
20180423173729 69 49 5.0 12.0 0.00 0.00 0.00 34 1020.2
20180423173233 69 40 5.0 10.0 0.00 0.00 0.00 34 1020.3
20180423172721 69 24 5.0 9.0 0.00 0.00 0.00 34 1020.4
20180423172224 68 82 5.0 9.0 0.00 0.00 0.00 35 1020.4
20180423171840 68 106 7.0 15.0 0.00 0.00 0.00 35 1020.5
20180423171321 67 101 9.0 15.0 0.00 0.00 0.00 35 1020.5
20180423170718 67 57 7.0 11.0 0.00 0.00 0.00 35 1020.5
20180423170223 67 30 5.0 11.0 0.00 0.00 0.00 36 1020.6
20180423165725 67 84 7.0 11.0 0.00 0.00 0.00 36 1020.7
20180423165232 66 83 4.0 9.0 0.00 0.00 0.00 37 1020.7
20180423164718 66 42 5.0 11.0 0.00 0.00 0.00 36 1020.7
20180423164225 66 62 5.0 11.0 0.00 0.00 0.00 37 1020.8
20180423163733 66 21 6.0 11.0 0.00 0.00 0.00 37 1020.8
20180423163217 65 27 4.0 9.0 0.00 0.00 0.00 36 1020.8
20180423162722 66 82 5.0 9.0 0.00 0.00 0.00 37 1020.9
20180423162231 66 49 4.0 13.0 0.00 0.00 0.00 39 1020.9
20180423161717 65 57 7.0 13.0 0.00 0.00 0.00 40 1020.9
20180423161224 65 93 6.0 11.0 0.00 0.00 0.00 38 1020.9
20180423160729 65 43 4.0 7.0 0.00 0.00 0.00 41 1021.0
20180423160231 64 82 4.0 8.0 0.00 0.00 0.00 42 1021.0
20180423155734 64 96 4.0 9.0 0.00 0.00 0.00 44 1021.1
20180423155219 63 83 7.0 10.0 0.00 0.00 0.00 41 1021.1
20180423154723 62 40 5.0 10.0 0.00 0.00 0.00 43 1021.2
20180423154226 62 54 4.0 6.0 0.00 0.00 0.00 43 1021.2
20180423153730 61 69 4.0 8.0 0.00 0.00 0.00 44 1021.2
20180423153232 61 71 4.0 8.0 0.00 0.00 0.00 45 1021.2
20180423152719 61 42 5.0 7.0 0.00 0.00 0.00 46 1021.2
20180423152224 60 57 3.0 8.0 0.00 0.00 0.00 45 1021.2
20180423151732 60 84 4.0 8.0 0.00 0.00 0.00 46 1021.2
20180423151218 60 92 5.0 8.0 0.00 0.00 0.00 48 1021.2
20180423150726 59 91 4.0 7.0 0.00 0.00 0.00 47 1021.2
20180423150226 58 59 3.0 8.0 0.00 0.00 0.00 47 1021.2
20180423145732 58 49 3.0 8.0 0.00 0.00 0.00 46 1021.2
20180423145219 58 70 3.0 8.0 0.00 0.00 0.00 49 1021.2
20180423144726 57 92 4.0 9.0 0.00 0.00 0.00 48 1021.3
20180423144230 57 55 3.0 9.0 0.00 0.00 0.00 48 1021.3
20180423143735 56 95 5.0 7.0 0.00 0.00 0.00 48 1021.3
20180423143220 56 63 6.0 8.0 0.00 0.00 0.00 49 1021.3
20180423142730 55 56 4.0 7.0 0.00 0.00 0.00 50 1021.4
20180423142215 55 45 4.0 7.0 0.00 0.00 0.00 49 1021.4
20180423141719 55 99 4.0 8.0 0.00 0.00 0.00 49 1021.5
20180423141224 54 100 5.0 8.0 0.00 0.00 0.00 50 1021.5
20180423140730 53 97 3.0 8.0 0.00 0.00 0.00 51 1021.6
20180423140230 52 46 3.0 6.0 0.00 0.00 0.00 51 1021.6
20180423135733 52 29 4.0 6.0 0.00 0.00 0.00 52 1021.6
20180423135216 51 63 3.0 7.0 0.00 0.00 0.00 52 1021.6
20180423134722 51 54 4.0 6.0 0.00 0.00 0.00 53 1021.6
20180423134226 51 59 3.0 5.0 0.00 0.00 0.00 53 1021.7
20180423133731 50 74 3.0 7.0 0.00 0.00 0.00 52 1021.6
20180423133217 50 75 4.0 7.0 0.00 0.00 0.00 52 1021.6
20180423132721 50 38 3.0 5.0 0.00 0.00 0.00 54 1021.6
20180423132225 49 40 3.0 7.0 0.00 0.00 0.00 54 1021.6
20180423131727 49 33 3.0 7.0 0.00 0.00 0.00 54 1021.5
20180423131231 49 49 3.0 6.0 0.00 0.00 0.00 54 1021.6
20180423130717 49 58 5.0 6.0 0.00 0.00 0.00 54 1021.5
20180423130219 48 51 3.0 6.0 0.00 0.00 0.00 54 1021.4
20180423125723 48 36 4.0 7.0 0.00 0.00 0.00 54 1021.4
20180423125229 48 27 4.0 7.0 0.00 0.00 0.00 54 1021.4
20180423124732 47 27 3.0 6.0 0.00 0.00 0.00 55 1021.4
20180423124219 47 20 4.0 6.0 0.00 0.00 0.00 54 1021.4
20180423123726 47 31 4.0 7.0 0.00 0.00 0.00 55 1021.4
20180423123232 46 27 3.0 7.0 0.00 0.00 0.00 56 1021.2
20180423122719 46 26 3.0 7.0 0.00 0.00 0.00 57 1021.2
20180423122226 45 40 4.0 6.0 0.00 0.00 0.00 56 1021.2
20180423121729 45 30 3.0 5.0 0.00 0.00 0.00 56 1021.2
20180423121232 45 32 3.0 6.0 0.00 0.00 0.00 56 1021.2
20180423120735 45 34 4.0 6.0 0.00 0.00 0.00 56 1021.2
20180423120235 45 47 3.0 4.0 0.00 0.00 0.00 55 1021.2
20180423115718 45 37 3.0 4.0 0.00 0.00 0.00 55 1021.1
20180423115224 45 36 3.0 4.0 0.00 0.00 0.00 54 1020.9
20180423114733 45 36 2.0 4.0 0.00 0.00 0.00 53 1020.9
20180423114218 45 36 3.0 4.0 0.00 0.00 0.00 53 1021.0
20180423113722 45 36 3.0 5.0 0.00 0.00 0.00 54 1020.9
20180423113230 45 33 3.0 5.0 0.00 0.00 0.00 54 1020.8
20180423112717 45 19 3.0 5.0 0.00 0.00 0.00 54 1020.8
20180423112221 45 5 3.0 5.0 0.00 0.00 0.00 54 1020.7
20180423111724 45 24 3.0 4.0 0.00 0.00 0.00 53 1020.7
20180423111230 45 39 3.0 4.0 0.00 0.00 0.00 53 1020.7
20180423110717 45 39 3.0 4.0 0.00 0.00 0.00 53 1020.6
20180423110228 45 39 2.0 3.0 0.00 0.00 0.00 53 1020.6
20180423105714 45 39 2.0 4.0 0.00 0.00 0.00 52 1020.6
20180423105219 45 39 3.0 4.0 0.00 0.00 0.00 53 1020.7
20180423104720 45 39 3.0 4.0 0.00 0.00 0.00 52 1020.7
20180423104225 45 39 3.0 4.0 0.00 0.00 0.00 52 1020.8
20180423103729 45 39 3.0 4.0 0.00 0.00 0.00 52 1020.7
20180423103231 45 39 3.0 4.0 0.00 0.00 0.00 52 1020.6
20180423102733 45 39 2.0 3.0 0.00 0.00 0.00 52 1020.6
20180423102236 46 39 2.0 3.0 0.00 0.00 0.00 52 1020.5
20180423101716 46 39 2.0 4.0 0.00 0.00 0.00 52 1020.6
20180423101229 46 39 2.0 4.0 0.00 0.00 0.00 51 1020.6
20180423100729 46 39 3.0 4.0 0.00 0.00 0.00 52 1020.6
20180423100224 46 39 3.0 5.0 0.00 0.00 0.00 52 1020.6
20180423095717 46 39 3.0 5.0 0.00 0.00 0.00 51 1020.6
20180423095223 46 42 3.0 4.0 0.00 0.00 0.00 51 1020.5
20180423094719 46 46 3.0 4.0 0.00 0.00 0.00 51 1020.6
20180423094224 46 46 3.0 4.0 0.00 0.00 0.00 51 1020.6
20180423093722 46 46 2.0 4.0 0.00 0.00 0.00 52 1020.6
20180423093227 46 46 3.0 4.0 0.00 0.00 0.00 51 1020.6
20180423092727 46 46 3.0 4.0 0.00 0.00 0.00 51 1020.6
20180423092227 46 46 2.0 3.0 0.00 0.00 0.00 51 1020.6
20180423091722 46 46 2.0 3.0 0.00 0.00 0.00 50 1020.6
20180423091225 46 46 2.0 3.0 0.00 0.00 0.00 50 1020.6
20180423090733 46 46 2.0 4.0 0.00 0.00 0.00 50 1020.7
20180423090230 47 46 3.0 4.0 0.00 0.00 0.00 50 1020.7
20180423085734 47 46 2.0 3.0 0.00 0.00 0.00 50 1020.6
20180423085223 47 46 2.0 2.0 0.00 0.00 0.00 50 1020.6
20180423084728 47 46 2.0 3.0 0.00 0.00 0.00 50 1020.6
20180423084233 47 46 2.0 3.0 0.00 0.00 0.00 50 1020.6
20180423083733 47 46 2.0 4.0 0.00 0.00 0.00 50 1020.6
20180423083230 47 46 3.0 4.0 0.00 0.00 0.00 50 1020.6
20180423082729 47 61 3.0 4.0 0.00 0.00 0.00 50 1020.6
20180423082225 47 79 2.0 3.0 0.00 0.00 0.00 50 1020.5
20180423081724 47 80 2.0 3.0 0.00 0.00 0.00 50 1020.6
20180423081225 47 80 1.0 3.0 0.00 0.00 0.00 50 1020.6
20180423080731 47 80 2.0 3.0 0.00 0.00 0.00 50 1020.6
20180423080231 48 80 2.0 3.0 0.00 0.00 0.00 50 1020.6
20180423075734 48 80 2.0 3.0 0.00 0.00 0.00 50 1020.6
20180423075220 48 80 2.0 3.0 0.00 0.00 0.00 50 1020.6
20180423074727 48 86 3.0 3.0 0.00 0.00 0.00 50 1020.6
20180423074214 48 86 2.0 3.0 0.00 0.00 0.00 49 1020.6
20180423073720 48 86 2.0 3.0 0.00 0.00 0.00 49 1020.6
20180423073227 48 86 2.0 6.0 0.00 0.00 0.00 51 1020.6
20180423072733 48 86 3.0 6.0 0.00 0.00 0.00 49 1020.6
20180423072236 49 90 2.0 6.0 0.00 0.00 0.00 48 1020.6
20180423071720 49 90 4.0 6.0 0.00 0.00 0.00 48 1020.6
20180423071223 50 82 3.0 5.0 0.00 0.00 0.00 47 1020.7
20180423070727 50 82 3.0 5.0 0.00 0.00 0.00 47 1020.6
20180423070228 50 76 3.0 5.0 0.00 0.00 0.00 47 1020.6